Location: Frydek-Mistek
(49.6830°N, 18.3330°E)
Time: 11:22:10
(UTC+01:00)

Courier 1B Rocket - Visible Passes

Search period start: 05 March 2015 00:00
Search period end: 15 March 2015 00:00
Orbit: 921 x 1202 km, 28.3° (Epoch: 03 March)

Date Brightness Start Highest point End Pass type
(mag) Time Alt. Az. Time Alt. Az. Time Alt. Az.
09 Mar 7.2 20:17:21 10° SSW 20:19:08 12° S 20:19:08 12° S visible
10 Mar 7.2 19:17:46 10° S 19:19:39 11° S 19:21:39 10° SSE visible
11 Mar 7.1 20:08:12 10° SSW 20:11:07 13° S 20:11:12 13° S visible
12 Mar 7.2 19:08:06 10° SSW 19:10:29 12° S 19:12:58 10° SSE visible
13 Mar 7.2 19:59:33 10° SSW 20:01:58 12° S 20:03:12 11° S visible
14 Mar 7.2 18:59:04 10° SSW 19:01:21 12° S 19:03:41 10° SSE visible
